This demonstration page uses our WeatherBlox Daily Observations layout. Learn more.

Left ArrowRight Arrow

44.89941, -97.11507

Hourly Observations for November 13, 2020

Temp ( °F °C ) Dew Point ( °F °C ) Humidity (%) Winds ( mph kmh ) Pressure ( in mb ) Visibility ( mi km ) Precip ( " mm )
12:53 am 00:53 Clear 18 -7.8 14 -10 84 84 S 6 9 30.17 1022 10 16 0.00 0.00
1:53 am 01:53 Clear 18 -7.8 15 -9.4 88 88 SSE 7 11 30.16 1021 10 16 0.00 0.00
2:53 am 02:53 Clear 15 -9.4 12 -11.1 88 88 SSE 8 13 30.17 1022 10 16 0.00 0.00
3:53 am 03:53 Clear 14 -10 12 -11.1 92 92 SSE 9 15 30.16 1021 10 16 0.00 0.00
4:53 am 04:53 Clear 14 -10 12 -11.1 92 92 SSE 9 15 30.14 1021 10 16 0.00 0.00
5:53 am 05:53 Clear 13 -10.6 11 -11.7 92 92 SSE 9 15 30.14 1021 10 16 0.00 0.00
6:53 am 06:53 Clear 14 -10 11 -11.7 88 88 SSE 10 17 30.11 1020 10 16 0.00 0.00
7:53 am 07:53 Sunny 15 -9.4 12 -11.1 88 88 SSE 13 20 30.09 1019 10 16 0.00 0.00
8:53 am 08:53 Sunny 19 -7.2 16 -8.9 88 88 SSE 9 15 30.07 1018 10 16 0.00 0.00
9:53 am 09:53 Sunny 23 -5 19 -7.2 85 85 SSE 14 22 30.03 1017 10 16 0.00 0.00
10:53 am 10:53 Sunny 30 -1.1 23 -5 75 75 SSE 17 28 29.99 1016 10 16 0.00 0.00
11:53 am 11:53 Sunny 33 0.6 23 -5 66 66 S 18 30 29.95 1014 10 16 0.00 0.00
12:53 pm 12:53 Sunny 36 2.2 24 -4.4 62 62 S 18 30 29.90 1013 10 16 0.00 0.00
1:53 pm 13:53 Sunny 35 1.7 24 -4.4 64 64 S 18 30 29.85 1011 10 16 0.00 0.00
2:53 pm 14:53 Sunny 35 1.7 25 -3.9 67 67 S 17 28 29.83 1010 10 16 0.00 0.00
3:53 pm 15:53 Sunny 35 1.7 26 -3.3 70 70 S 23 37 29.80 1009 10 16 0.00 0.00
4:53 pm 16:53 Sunny 33 0.6 27 -2.8 78 78 S 16 26 29.80 1009 10 16 0.00 0.00
5:53 pm 17:53 Clear 32 0 27 -2.8 82 82 S 15 24 29.78 1009 10 16 0.00 0.00
6:53 pm 18:53 Clear 31 -0.6 27 -2.8 85 85 S 14 22 29.77 1008 10 16 0.00 0.00
7:53 pm 19:53 Clear 32 0 27 -2.8 82 82 SSE 15 24 29.74 1007 10 16 0.00 0.00
8:53 pm 20:53 Clear 32 0 27 -2.8 82 82 SSE 16 26 29.71 1006 10 16 0.00 0.00
9:53 pm 21:53 Clear 34 1.1 27 -2.8 76 76 S 18 30 29.69 1005 10 16 0.00 0.00
10:53 pm 22:53 Clear 33 0.6 26 -3.3 75 75 SSE 15 24 29.65 1004 10 16 0.00 0.00
11:53 pm 23:53 Clear 30 -1.1 25 -3.9 82 82 SE 13 20 29.62 1003 10 16 0.00 0.00

Powered by AerisWeather